Location: ????????
(55.6189°N, 38.3031°E)
Time: 08:46:07
(UTC+00:00)

CZ-4C R/B - Pass Details

Date: 15 November 2019
Orbit: 650 x 1352 km, 63.4° (Epoch: 08 December)

Event Time Altitude Azimuth Distance (km) Brightness Sun altitude
Exits shadow 02:27:28 38° 297° (WNW) 1,360 2.8 -21.2°
Maximum altitude 02:29:15 49° 343° (NNW) 1,204 2.8 -21.0°
Drops below altitude 10° 02:35:54 10° 58° (ENE) 2,935 5.8 -20.0°
Sets 02:38:57 0° 64° (ENE) 4,005 6.7 -19.6°
